Home   Weather   Sharjah   Past weeks

Flag for United Arab Emirates Past Weather in Sharjah, Sharjah, United Arab Emirates — Yesterday and Last 2 Weeks

Now
91 °F

Sunny.


Feels Like: 99 °F
Forecast: 80 / 98 °F
Wind: 12 mph from Southwest

Location: Sharjah International Airport

Current Time: May 23, 2017 at 11:15:11 am

Latest Report: May 23, 2017 at 10:00 am


Visibility: 10 mi

Pressure: 29.77 "Hg

Humidity: 52%

Dew Point: 72 °F

Location of SharjahLocation

Past Weather in Sharjah — Graph

°F

Sharjah Temperature Yesterday

Maximum temperature yesterday: 106 °F (at 1:00 pm)
Minimum temperature yesterday: 86 °F (at 4:00 am)
Average temperature yesterday: 95 °F

High & Low Weather Summary for the Past Weeks

 TemperatureHumidityPressure
High106 °F (May 8, 1:00 pm)89% (May 12, 5:00 am)29.89 "Hg (May 12, 5:00 am)
Low73 °F (May 14, 5:00 am)12% (May 9, 1:00 pm)29.53 "Hg (May 21, 4:00 pm)
Average90 °F47%29.69 "Hg
* Reported May 8 10:00 am — May 23 10:00 am, Sharjah. Weather by CustomWeather, © 2017

Note: Actual official high and low records may vary slightly from our data, if they occured in-between our weather recording intervals... More about our weather records

Advertising

Sharjah Weather History for the Previous 24 Hours

Scroll right to see more
 ConditionsComfort  
Time TempWeatherWind HumidityBarometerVisibility
10:00 am
Tue, May 23
91 °FSunny.12 mph52%29.77 "Hg10 mi
9:00 am90 °FSunny.13 mph55%29.77 "Hg10 mi
8:00 am86 °FSunny.12 mph62%29.77 "Hg10 mi
7:00 am82 °FSunny.9 mph66%29.74 "Hg10 mi
6:00 am81 °FSunny.8 mph66%29.71 "Hg10 mi
5:00 am81 °FClear.9 mph62%29.68 "Hg10 mi
4:00 am82 °FClear.8 mph58%29.68 "Hg10 mi
3:00 am84 °FClear.8 mph55%29.65 "Hg10 mi
2:00 am86 °FClear.9 mph55%29.68 "Hg10 mi
1:00 am88 °FClear.9 mph52%29.68 "Hg10 mi
12:00 am90 °FClear.7 mph49%29.68 "Hg10 mi
11:00 pm
Mon, May 22
91 °FPassing clouds.6 mph46%29.68 "HgN/A
10:00 pm91 °FClear.7 mph46%29.68 "Hg10 mi
9:00 pm91 °FClear.8 mph49%29.68 "Hg10 mi
8:00 pm93 °FClear.10 mph44%29.65 "Hg10 mi
7:00 pm95 °FClear.16 mph36%29.62 "Hg10 mi
6:00 pm99 °FSunny.18 mph29%29.62 "Hg10 mi
5:00 pm102 °FSunny.16 mph23%29.59 "Hg10 mi
4:00 pm104 °FSunny.20 mph20%29.62 "Hg10 mi
3:00 pm106 °FSunny.22 mph13%29.62 "Hg10 mi
2:00 pm106 °FSunny.22 mph17%29.62 "Hg10 mi
1:00 pm106 °FSunny.20 mph19%29.65 "Hg10 mi
12:00 pm104 °FSunny.20 mph24%29.65 "Hg10 mi
11:00 am102 °FSunny.15 mph26%29.65 "Hg10 mi
Weather by CustomWeather, © 2017

See weather overviewHow to use our weather pages